Location: Bamazo
(6.7448°N, 10.8189°W)
Time: 01:25:35
(UTC+00:00)

Atlas Centaur 2 - Pass Details

Date: 18 September 2020
Orbit: 459 x 1310 km, 30.4° (Epoch: 21 October)

Event Time Altitude Azimuth Distance (km) Brightness Sun altitude
Rises 19:34:44 0° 288° (WNW) 3,957 7.3 -14.1°
Reaches altitude 10° 19:38:01 10° 279° (W) 2,865 6.3 -14.9°
Maximum altitude 19:44:12 35° 217° (SW) 1,421 3.7 -16.5°
Drops below altitude 10° 19:49:14 10° 152° (SSE) 2,306 4.2 -17.7°
Enters shadow 19:49:18 10° 151° (SSE) 2,326 4.2 -17.7°
